This is the latest recevied weather packets stored in our database for station/object KC1HBM. If no packets are shown the sender has not sent any weather packets the latest 10 day(s).
| Time | Temp. | Humidity | Pressure | Rain* | Wind** | Luminosity | Snow |
|---|---|---|---|---|---|---|---|
| 1787873303 | 21.11° C | 91% | 1012.8 hPa | 0 mm | - | 0 W/m² | - |
| 1787873001 | 21.11° C | 92% | 1012.8 hPa | 0 mm | - | 0 W/m² | - |
| 1787872697 | 21.11° C | 92% | 1012.7 hPa | 0 mm | - | 0 W/m² | - |
| 1787872393 | 21.67° C | 92% | 1012.7 hPa | 0 mm | - | 0 W/m² | - |
| 1787872087 | 21.67° C | 91% | 1012.9 hPa | 0 mm | - | 1 W/m² | - |
| 1787871781 | 21.67° C | 91% | 1013.1 hPa | 0 mm | - | 2 W/m² | - |
| 1787871476 | 21.67° C | 91% | 1013 hPa | 0 mm | - | 4 W/m² | - |
| 1787871172 | 21.67° C | 91% | 1012.9 hPa | 0 mm | - | 6 W/m² | - |
| 1787870871 | 21.67° C | 91% | 1013 hPa | 0 mm | - | 6 W/m² | - |
| 1787870566 | 21.67° C | 90% | 1013 hPa | 0 mm | - | 8 W/m² | - |
| 1787870262 | 22.22° C | 90% | 1012.9 hPa | 0 mm | - | 8 W/m² | - |
| 1787869956 | 22.22° C | 90% | 1013.1 hPa | 0 mm | - | 10 W/m² | - |
| 1787869656 | 22.22° C | 90% | 1013 hPa | 0 mm | - | 10 W/m² | - |
| 1787869350 | 22.22° C | 89% | 1013 hPa | 0 mm | - | 12 W/m² | - |
| 1787869050 | 22.22° C | 89% | 1013 hPa | 0 mm | - | 12 W/m² | - |
| 1787868748 | 22.22° C | 89% | 1013 hPa | 0 mm | - | 13 W/m² | - |
| 1787868448 | 22.22° C | 88% | 1012.9 hPa | 0 mm | - | 13 W/m² | - |
| 1787868147 | 22.78° C | 88% | 1012.8 hPa | 0 mm | - | 14 W/m² | - |
| 1787867842 | 22.78° C | 88% | 1013.1 hPa | 0 mm | - | 15 W/m² | - |
| 1787867538 | 22.78° C | 88% | 1013.3 hPa | 0 mm | - | 16 W/m² | - |
| 1787867233 | 22.78° C | 88% | 1013.4 hPa | 0 mm | - | 17 W/m² | - |
| 1787866928 | 22.78° C | 88% | 1013.4 hPa | 0 mm | - | 23 W/m² | - |
| 1787866624 | 22.78° C | 89% | 1013.5 hPa | 0 mm | - | 38 W/m² | - |
| 1787866321 | 22.22° C | 89% | 1013.4 hPa | 0 mm | - | 35 W/m² | - |
| 1787866017 | 22.22° C | 90% | 1013.7 hPa | 0 mm | - | 35 W/m² | - |
* Rain latest hour (hover to see other rain measurements)
** Current wind speed in m/s (hover to see current wind gust speed)